�N����,����,�~����,�C��,���x,�C��,����,���ϕ���,�ő�u�ԕ���,�ő厞����,���˗�,�I�_���x,�n�����x,�ő啗���N��,DTYPE
"19/04/26","00:10",0.0,16.4,86.6,999.8,333.1,2.2,4.0,336.9,0.00,14.2,16.7,"00:05:28",1
"19/04/26","00:20",0.0,16.3,86.9,999.6,320.3,1.8,2.9,345.3,0.00,14.2,16.4,"00:18:56",1
"19/04/26","00:30",0.0,16.2,87.1,999.8,301.2,1.2,1.9,319.5,0.00,14.1,16.7,"00:25:52",1
"19/04/26","00:40",0.0,16.2,87.5,999.6,293.6,1.3,2.5,301.1,0.00,14.2,16.9,"00:36:24",1
"19/04/26","00:50",0.0,16.0,87.8,999.8,305.8,1.0,1.9,320.2,0.00,14.0,16.8,"00:43:28",1
"19/04/26","01:00",0.0,16.0,88.1,999.8,316.5,1.1,1.8,338.9,0.00,14.1,16.7,"00:57:36",1
"19/04/26","01:10",0.0,16.0,88.4,999.6,333.2,1.5,2.4,332.3,0.00,14.1,16.7,"01:01:04",1
"19/04/26","01:20",0.0,15.9,88.5,999.3,323.0,1.5,2.1,327.0,0.00,14.0,16.7,"01:12:48",1
"19/04/26","01:30",0.0,15.9,88.7,999.1,313.1,1.2,2.2,337.1,0.00,14.1,16.7,"01:28:48",1
"19/04/26","01:40",0.0,15.9,89.0,999.1,313.3,1.3,2.1,334.6,0.00,14.1,16.4,"01:30:02",1
"19/04/26","01:50",0.0,15.9,89.1,999.1,325.8,1.8,2.6,336.1,0.00,14.1,16.7,"01:47:44",1
"19/04/26","02:00",0.0,15.9,89.1,998.9,330.2,1.6,2.4,334.7,0.00,14.1,16.4,"01:50:08",1
"19/04/26","02:10",0.0,15.8,89.1,999.1,341.1,1.1,2.2,335.8,0.00,14.0,16.5,"02:07:20",1
"19/04/26","02:20",0.0,15.7,89.5,999.1,327.9,1.5,2.9,342.5,0.00,14.0,16.6,"02:17:36",1
"19/04/26","02:30",0.0,15.7,89.8,998.4,327.0,1.5,2.1,314.4,0.00,14.1,16.5,"02:26:00",1
"19/04/26","02:40",0.0,15.6,90.0,998.9,320.0,1.6,2.1,321.6,0.00,14.0,16.6,"02:35:20",1
"19/04/26","02:50",0.0,15.7,90.1,998.6,320.5,1.7,2.4,308.2,0.00,14.1,16.5,"02:42:08",1
"19/04/26","03:00",0.0,15.7,90.0,998.4,328.2,1.8,2.9,331.7,0.00,14.1,16.4,"02:52:48",1
"19/04/26","03:10",0.0,15.8,89.9,997.9,324.6,1.8,2.8,338.1,0.00,14.2,16.3,"03:06:32",1
"19/04/26","03:20",0.0,15.8,89.8,997.9,322.0,1.6,2.6,335.2,0.00,14.2,16.2,"03:16:16",1
"19/04/26","03:30",0.0,15.8,89.8,998.2,299.4,1.1,2.0,311.5,0.00,14.2,16.5,"03:20:40",1
"19/04/26","03:40",0.0,15.8,89.9,998.4,296.0,1.1,1.6,314.5,0.00,14.2,16.2,"03:36:00",1
"19/04/26","03:50",0.0,15.8,89.9,998.2,311.5,1.5,2.5,328.9,0.00,14.2,16.3,"03:48:32",1
"19/04/26","04:00",0.0,15.8,89.8,998.2,330.2,1.7,2.7,333.3,0.00,14.2,16.3,"03:59:04",1
"19/04/26","04:10",0.0,15.8,89.8,997.9,326.3,1.5,2.7,322.4,0.00,14.2,16.3,"04:02:24",1
"19/04/26","04:20",0.0,15.8,89.8,997.9,294.4,1.0,2.7,334.9,0.00,14.2,16.4,"04:19:52",1
"19/04/26","04:30",0.0,15.8,89.6,997.4,332.8,1.3,2.0,325.7,0.00,14.1,16.3,"04:20:08",1
"19/04/26","04:40",0.0,15.8,89.5,997.7,327.2,1.5,2.7,342.4,0.00,14.1,16.4,"04:30:02",1
"19/04/26","04:50",0.0,15.8,89.5,997.7,328.6,1.6,2.7,336.3,0.00,14.1,16.1,"04:40:08",1
"19/04/26","05:00",0.0,15.8,89.4,997.9,316.6,1.3,2.5,343.2,0.00,14.1,16.2,"04:50:02",1
"19/04/26","05:10",0.0,15.8,89.4,997.9,321.3,1.5,2.1,333.9,0.00,14.1,16.3,"05:06:00",1
"19/04/26","05:20",0.0,15.8,89.2,997.9,328.6,1.3,2.7,322.4,0.00,14.1,16.3,"05:17:36",1
"19/04/26","05:30",0.0,15.8,89.1,998.2,330.5,1.8,2.7,334.0,0.00,14.0,16.2,"05:24:56",1
"19/04/26","05:40",0.0,15.9,88.8,997.7,322.7,1.8,3.2,344.7,0.00,14.1,16.2,"05:30:02",1
"19/04/26","05:50",0.0,15.9,88.6,998.2,327.8,2.3,3.6,343.7,0.00,14.1,16.0,"05:40:48",1
"19/04/26","06:00",0.0,15.9,88.6,997.9,333.0,1.8,2.8,340.7,0.00,14.1,16.1,"05:57:44",1
"19/04/26","06:10",0.0,16.0,89.0,998.4,332.6,2.0,3.6,335.9,0.00,14.2,16.2,"06:07:20",1
"19/04/26","06:20",0.0,15.9,89.2,998.6,312.9,1.7,3.4,339.6,0.00,14.2,16.3,"06:12:40",1
"19/04/26","06:30",0.0,16.0,89.4,998.6,318.2,1.3,2.1,333.4,0.00,14.3,16.2,"06:25:52",1
"19/04/26","06:40",0.0,16.0,89.6,998.2,323.3,1.2,2.4,316.3,0.00,14.3,16.1,"06:36:40",1
"19/04/26","06:50",0.0,16.0,89.7,998.6,325.6,1.8,2.9,324.1,0.00,14.4,16.2,"06:45:20",1
"19/04/26","07:00",0.0,16.1,89.3,998.6,331.1,2.2,2.9,317.3,0.01,14.4,16.2,"06:56:48",1
"19/04/26","07:10",0.0,16.2,89.2,998.9,327.8,2.0,4.5,336.5,0.00,14.5,16.2,"07:06:56",1
"19/04/26","07:20",0.0,16.1,89.0,998.6,323.0,2.3,4.0,337.3,0.00,14.3,16.2,"07:13:44",1
"19/04/26","07:30",0.0,16.2,89.0,998.6,309.3,1.6,3.2,336.8,0.01,14.4,16.1,"07:20:08",1
"19/04/26","07:40",0.0,16.3,88.8,998.9,292.7,1.1,2.2,322.0,0.00,14.5,16.1,"07:38:40",1
"19/04/26","07:50",0.0,16.4,88.9,998.9,327.3,2.0,2.7,338.0,0.01,14.6,16.2,"07:41:12",1
"19/04/26","08:00",0.0,16.4,88.5,998.9,321.7,2.0,3.2,333.5,0.02,14.5,16.3,"07:51:12",1
"19/04/26","08:10",0.0,16.5,87.9,999.3,317.9,0.8,1.7,326.9,0.02,14.5,16.3,"08:01:28",1
"19/04/26","08:20",0.0,16.7,87.8,999.1,306.5,0.7,1.6,335.6,0.01,14.7,16.2,"08:18:08",1
"19/04/26","08:30",0.0,16.7,87.0,998.9,294.2,0.8,1.4,328.7,0.01,14.6,16.2,"08:20:24",1
"19/04/26","08:40",0.0,16.8,87.1,999.3,267.7,0.7,1.3,239.6,0.02,14.7,16.4,"08:38:08",1
"19/04/26","08:50",0.0,16.9,86.8,999.3,317.2,1.0,1.9,331.6,0.02,14.7,16.2,"08:48:00",1
"19/04/26","09:00",0.0,17.1,86.4,999.6,352.5,0.6,1.1,349.2,0.03,14.9,16.3,"08:50:40",1
"19/04/26","09:10",0.0,17.2,86.3,999.3,9.7,0.7,1.3,355.7,0.04,14.9,16.4,"09:00:48",1
"19/04/26","09:20",0.0,17.2,86.2,999.8,74.3,0.5,1.4,120.6,0.04,14.9,16.4,"09:18:24",1
"19/04/26","09:30",0.0,17.1,85.8,999.8,94.0,0.3,0.9,127.1,0.03,14.7,16.4,"09:22:40",1
"19/04/26","09:40",0.0,17.2,85.9,999.8,322.1,0.7,1.4,347.1,0.03,14.9,16.5,"09:35:44",1
"19/04/26","09:50",0.0,17.3,85.5,999.8,14.3,0.3,1.4,67.7,0.04,14.9,16.5,"09:49:36",1
"19/04/26","10:00",0.0,17.3,86.0,1000.0,90.3,1.0,2.5,111.9,0.04,15.0,16.7,"09:58:56",1
"19/04/26","10:10",0.0,17.3,86.7,1000.0,170.5,1.1,2.6,132.7,0.08,15.1,16.6,"10:01:04",1
"19/04/26","10:20",0.0,17.5,85.9,1000.0,204.1,1.2,3.6,172.5,0.11,15.2,16.7,"10:12:24",1
"19/04/26","10:30",0.0,18.1,85.0,999.6,245.2,1.1,2.2,225.4,0.27,15.6,16.7,"10:20:56",1
"19/04/26","10:40",0.0,18.7,81.5,999.6,287.8,1.0,2.1,267.1,0.37,15.5,16.7,"10:30:24",1
"19/04/26","10:50",0.0,19.5,79.4,999.6,264.9,0.7,2.9,337.1,0.33,15.9,17.2,"10:49:20",1
"19/04/26","11:00",0.0,19.2,77.5,999.6,282.8,1.6,4.5,318.7,0.24,15.2,17.2,"10:58:08",1
"19/04/26","11:10",0.0,19.5,75.5,999.6,291.0,1.8,4.1,297.9,0.36,15.1,17.4,"11:08:00",1
"19/04/26","11:20",0.0,19.7,74.3,999.3,298.7,2.1,4.0,330.8,0.37,15.0,17.2,"11:17:36",1
"19/04/26","11:30",0.0,19.6,74.6,999.6,305.6,2.0,4.8,336.2,0.25,15.0,17.5,"11:28:48",1
"19/04/26","11:40",0.0,19.5,74.6,999.6,287.3,2.0,4.0,303.7,0.23,14.9,17.6,"11:33:28",1
"19/04/26","11:50",0.0,19.6,73.1,999.6,288.8,2.6,6.2,343.2,0.27,14.7,17.9,"11:45:28",1
"19/04/26","12:00",0.0,19.6,71.8,999.6,283.8,2.2,4.9,326.8,0.22,14.4,17.8,"11:59:36",1
"19/04/26","12:10",0.0,19.6,71.6,999.6,295.7,2.6,4.8,335.3,0.20,14.4,17.8,"12:01:12",1
"19/04/26","12:20",0.0,19.8,71.2,999.3,294.0,2.2,4.5,297.7,0.26,14.5,17.7,"12:17:28",1
"19/04/26","12:30",0.0,21.5,66.2,999.1,256.3,2.0,3.7,301.8,0.57,15.0,18.0,"12:22:48",1
"19/04/26","12:40",0.0,22.1,63.2,998.9,279.9,1.8,4.4,217.0,0.62,14.8,18.5,"12:30:08",1
"19/04/26","12:50",0.0,22.3,62.1,999.1,287.6,1.7,4.7,335.4,0.43,14.7,18.5,"12:46:56",1
"19/04/26","13:00",0.0,21.6,64.0,999.6,279.7,2.2,5.7,333.4,0.36,14.5,18.6,"12:55:28",1
"19/04/26","13:10",0.0,22.8,61.0,998.6,310.9,2.5,7.0,331.7,0.63,14.9,18.8,"13:04:40",1
"19/04/26","13:20",0.0,22.2,64.3,998.6,275.8,1.7,4.0,321.5,0.40,15.2,19.1,"13:11:20",1
"19/04/26","13:30",0.0,22.2,61.0,998.6,326.3,2.6,5.2,351.9,0.36,14.4,19.2,"13:24:00",1
"19/04/26","13:40",0.0,21.6,62.0,998.9,314.9,2.8,5.8,343.4,0.35,14.1,19.2,"13:30:40",1
"19/04/26","13:50",0.0,23.2,57.4,998.6,294.1,2.2,4.9,330.1,0.61,14.4,19.5,"13:44:16",1
"19/04/26","14:00",0.0,22.7,58.6,998.2,274.1,2.6,6.6,326.2,0.55,14.2,19.7,"13:58:48",1
"19/04/26","14:10",0.0,23.2,58.6,998.2,274.8,2.6,5.1,260.6,0.59,14.7,19.7,"14:06:08",1
"19/04/26","14:20",0.0,23.3,58.4,997.7,284.2,2.3,6.2,325.2,0.59,14.7,20.1,"14:18:08",1
"19/04/26","14:30",0.0,23.4,57.6,997.7,273.1,2.6,6.3,264.6,0.64,14.6,20.0,"14:29:36",1
"19/04/26","14:40",0.0,23.8,58.1,997.2,315.5,3.1,5.7,326.5,0.60,15.1,20.3,"14:30:02",1
"19/04/26","14:50",0.0,23.6,56.6,997.9,292.5,2.8,6.8,345.2,0.61,14.5,20.3,"14:48:00",1
"19/04/26","15:00",0.0,22.2,59.1,997.4,302.0,2.7,5.6,344.2,0.40,13.9,20.3,"14:53:04",1
"19/04/26","15:10",0.0,21.7,63.2,997.7,307.6,3.4,8.9,338.4,0.17,14.4,20.4,"15:06:56",1
"19/04/26","15:20",0.0,20.7,64.4,997.7,359.0,3.5,7.8,16.8,0.18,13.8,20.5,"15:17:20",1
"19/04/26","15:30",0.0,19.9,67.5,998.2,348.0,4.2,10.0,325.9,0.12,13.8,20.4,"15:27:28",1
"19/04/26","15:40",0.0,19.0,70.6,998.2,350.3,4.4,9.3,335.0,0.12,13.6,20.1,"15:31:44",1
"19/04/26","15:50",0.0,18.4,74.1,997.9,350.2,3.9,7.3,4.2,0.10,13.7,20.0,"15:42:16",1
"19/04/26","16:00",0.0,18.7,73.9,998.4,345.4,2.8,5.6,326.0,0.14,14.0,19.8,"15:51:28",1
"19/04/26","16:10",0.0,18.6,73.0,998.9,347.0,3.0,7.1,342.8,0.09,13.7,19.7,"16:02:40",1
"19/04/26","16:20",0.0,18.3,74.2,998.9,348.0,2.1,3.9,346.2,0.04,13.7,19.7,"16:12:40",1
"19/04/26","16:30",0.0,17.7,75.4,999.1,4.5,2.6,7.2,346.4,0.03,13.3,19.6,"16:25:12",1
"19/04/26","16:40",0.0,17.4,76.5,999.8,353.7,2.7,6.5,335.8,0.02,13.3,19.4,"16:33:28",1
"19/04/26","16:50",0.0,17.1,77.4,999.3,350.2,2.6,5.4,345.7,0.01,13.2,19.2,"16:41:52",1
"19/04/26","17:00",0.0,16.6,78.4,1000.0,355.4,2.6,4.8,334.8,0.01,12.9,19.2,"16:51:20",1
"19/04/26","17:10",0.0,16.4,79.8,1000.5,3.6,2.0,3.6,58.7,0.02,12.9,18.9,"17:02:00",1
"19/04/26","17:20",0.0,16.0,80.1,1000.5,358.9,2.1,4.2,28.3,0.01,12.6,19.0,"17:15:20",1
"19/04/26","17:30",0.0,16.0,79.9,1001.0,354.2,2.2,5.1,336.4,0.03,12.6,18.8,"17:22:32",1
"19/04/26","17:40",0.0,15.9,79.0,1000.8,358.1,2.3,4.4,15.9,0.04,12.3,18.9,"17:34:32",1
"19/04/26","17:50",0.0,16.2,78.1,1001.0,3.0,2.0,4.2,0.7,0.09,12.4,18.7,"17:45:12",1
"19/04/26","18:00",0.0,16.2,77.2,1001.2,353.4,2.7,5.2,3.9,0.07,12.2,18.5,"17:50:40",1
"19/04/26","18:10",0.0,15.8,76.6,1001.2,357.1,3.1,5.7,341.1,0.04,11.7,18.4,"18:02:08",1
"19/04/26","18:20",0.0,15.3,76.8,1001.2,5.5,3.4,6.4,6.7,0.02,11.3,18.5,"18:18:56",1
"19/04/26","18:30",0.0,15.2,77.3,1001.7,352.0,2.7,5.2,335.8,0.00,11.3,18.2,"18:22:16",1
"19/04/26","18:40",0.0,15.0,77.5,1001.9,352.0,2.5,5.8,343.6,0.00,11.1,18.1,"18:36:08",1
"19/04/26","18:50",0.0,14.9,78.4,1001.5,343.7,2.2,4.8,347.3,0.00,11.2,18.2,"18:46:24",1
"19/04/26","19:00",0.0,14.8,78.7,1001.7,1.8,1.5,3.2,341.8,0.00,11.2,17.8,"18:53:44",1
"19/04/26","19:10",0.0,14.6,78.5,1001.7,2.3,1.6,3.2,23.4,0.00,10.9,17.7,"19:01:04",1
"19/04/26","19:20",0.0,14.5,78.5,1001.5,348.9,1.7,3.4,330.9,0.00,10.8,17.7,"19:15:28",1
"19/04/26","19:30",0.0,14.3,78.5,1001.2,347.6,1.7,3.5,336.7,0.00,10.7,17.6,"19:26:08",1
"19/04/26","19:40",0.0,14.3,78.1,1001.2,356.5,1.3,4.1,325.0,0.00,10.6,17.4,"19:39:44",1
"19/04/26","19:50",0.0,14.2,78.0,1001.7,349.3,2.0,4.8,345.7,0.00,10.5,17.6,"19:40:08",1
"19/04/26","20:00",0.0,13.9,77.9,1001.9,330.8,4.0,7.3,305.4,0.00,10.2,17.2,"19:58:58",1
"19/04/26","20:10",0.0,13.8,77.7,1002.2,339.6,3.6,6.8,342.6,0.00,10.0,17.3,"20:06:58",1
"19/04/26","20:20",0.0,13.7,78.1,1002.2,334.4,4.1,7.9,317.8,0.00,10.0,17.2,"20:19:20",1
"19/04/26","20:30",0.0,13.7,78.2,1002.2,334.6,2.8,5.0,328.0,0.00,10.0,17.0,"20:29:20",1
"19/04/26","20:40",0.0,13.6,78.6,1002.2,355.8,2.6,6.7,343.5,0.00,10.0,17.0,"20:39:36",1
"19/04/26","20:50",0.0,13.4,78.9,1002.4,347.5,3.2,5.2,351.0,0.00,9.9,16.9,"20:46:32",1
"19/04/26","21:00",0.0,13.4,79.4,1002.6,347.3,2.8,6.2,338.8,0.00,10.0,16.6,"20:51:52",1
"19/04/26","21:10",0.0,13.4,79.3,1002.2,2.9,2.1,4.8,1.7,0.00,9.9,16.9,"21:03:52",1
"19/04/26","21:20",0.0,13.3,79.4,1002.6,342.1,2.3,4.3,338.2,0.00,9.9,16.7,"21:19:36",1
"19/04/26","21:30",0.0,13.2,79.4,1002.9,350.5,2.0,4.2,15.2,0.00,9.8,16.6,"21:29:04",1
"19/04/26","21:40",0.0,13.2,79.2,1002.6,350.8,1.5,2.9,338.0,0.00,9.7,16.6,"21:36:32",1
"19/04/26","21:50",0.0,13.2,79.1,1002.9,355.4,1.7,4.8,359.7,0.00,9.7,16.5,"21:41:52",1
"19/04/26","22:00",0.0,13.1,79.1,1003.1,357.8,2.1,3.9,24.5,0.00,9.6,16.4,"21:52:40",1
"19/04/26","22:10",0.0,13.0,80.0,1002.6,347.8,1.2,4.2,336.9,0.00,9.7,16.4,"22:04:02",1
"19/04/26","22:20",0.0,12.8,80.9,1002.4,354.3,0.8,1.8,350.6,0.00,9.6,16.4,"22:19:04",1
"19/04/26","22:30",0.0,12.7,82.2,1002.4,350.7,0.8,1.8,332.1,0.00,9.8,16.2,"22:29:56",1
"19/04/26","22:40",0.0,12.6,83.3,1002.2,334.9,1.3,2.6,332.4,0.00,9.9,16.3,"22:36:36",1
"19/04/26","22:50",0.0,12.6,84.0,1002.2,334.1,1.0,2.2,349.3,0.00,10.0,16.1,"22:45:18",1
"19/04/26","23:00",0.0,12.5,84.9,1002.4,338.9,1.6,2.6,328.7,0.00,10.1,16.1,"22:58:04",1
"19/04/26","23:10",0.0,12.4,85.7,1001.9,336.6,1.8,3.2,344.1,0.00,10.1,16.2,"23:07:34",1
"19/04/26","23:20",0.0,12.2,86.0,1002.4,334.8,2.3,3.5,334.4,0.00,10.0,16.2,"23:16:08",1
"19/04/26","23:30",0.0,12.4,86.0,1003.1,319.2,1.8,3.2,320.8,0.00,10.2,16.1,"23:26:48",1
"19/04/26","23:40",1.4,12.3,85.7,1002.9,305.6,1.8,3.3,305.6,0.00,10.0,16.1,"23:32:56",1
"19/04/26","23:50",0.2,12.2,86.8,1002.4,325.5,1.3,2.1,331.3,0.00,10.1,16.1,"23:45:12",1
"19/04/26","24:00",0.0,12.0,87.8,1002.2,310.0,1.2,1.9,326.2,0.00,10.1,15.7,"23:55:52",1
